Location: Barcelona
(41.3830°N, 2.1830°E)
Time: 23:36:48
(UTC+02:00)

CUTE 1.7 + AOD 2 - Visible Passes

Search period start: 15 October 2019 00:00
Search period end: 25 October 2019 00:00
Orbit: 595 x 611 km, 97.6° (Epoch: 14 October)

Date Brightness Start Highest point End Pass type
(mag) Time Alt. Az. Time Alt. Az. Time Alt. Az.
15 Oct ? 06:08:23 10° E 06:08:24 10° E 06:08:25 10° E visible
16 Oct ? 06:18:20 10° ENE 06:20:34 14° E 06:22:48 10° ESE visible
17 Oct ? 06:29:40 10° NE 06:32:43 19° E 06:35:44 10° SE visible
18 Oct ? 06:41:17 10° NE 06:44:50 25° E 06:48:21 10° SSE visible
19 Oct ? 06:53:03 10° NNE 06:56:56 34° E 07:00:47 10° SSE visible
20 Oct ? 07:04:54 10° NNE 07:09:01 47° E 07:13:04 10° S visible
20 Oct ? 19:33:38 10° SW 19:36:53 21° W 19:40:08 10° NW visible
21 Oct ? 07:16:50 10° NNE 07:21:04 66° E 07:25:14 10° S visible
21 Oct ? 19:46:27 10° SW 19:49:01 15° W 19:51:36 10° NW visible
22 Oct ? 07:28:51 10° NNE 07:33:06 89° W 07:37:19 10° SSW visible
22 Oct ? 19:59:49 10° WSW 20:01:10 11° W 20:02:31 10° WNW visible
23 Oct ? 06:08:10 10° E 06:08:53 10° E 06:09:36 10° E visible
23 Oct ? 07:40:55 10° N 07:45:07 65° WNW 07:49:16 10° SSW visible
24 Oct ? 06:18:43 10° ENE 06:21:03 14° E 06:23:22 10° SE visible
